NOAA 16 DEB, 41058

Orbit data source: Space-Track

NOAA 16 DEB, 41058 is space debris in SSO originally from a launch on Thu, 21 Sep 2000 UTC launched from the Air Force Western Test Range (AFWTR). Debris objects in space refer to the collection of defunct objects orbiting the Earth. Examples of debris include non-operational satellites, rocket bodies, and fragments generated from explosions, collisions, or faulty payload assembly.

Loading next visibility...
Identifier
41058, 2000-055R
Orbit
SSO
Country
Flag of USUS
Related business
Manufacturer
Unknown
Mission
Spacecraft
Bus & Motor
Unknown
Mass
Unknown
Launch date (UTC)
2000-09-21 (25 years ago)
Launch vehicle
Unknown
Launch site
Air Force Western Test Range (AFWTR)
Object type
Payload
Rocket body
Debris
Shape & HBR
Unknown shape, 0.1 m
Radar Cross Section
Small (<0.1 m²)

Expand to show TLE details & history
Last TLE update: 14 hours ago

TLE from 14 hours ago
0 NOAA 16 DEB
1 41058U 00055R   26061.94839802  .00001200  00000-0  66681-3 0  9999
2 41058  98.5910  63.5436 0024510  89.7131 270.6851 14.12774492527936
Epoch: 2026-03-02T22:45Z
TLE epoch observation values (Epoch: 2026-03-02T22:45:41.588Z)
Latitude
0.00001°
Longitude
-78.61417°
Altitude
852.633 km
Speed
7.426 km/s
True Right ascension
04h 14m 10s
True Declination
0° 00' 00"
Sunlit
Object was in daylight at epoch
Visualization orbit readout
Latitude
Unknown
Longitude
Unknown
Altitude
Unknown
Speed
Unknown
Apparent Right ascension
Unknown
Apparent Declination
Unknown
Sunlit
N/A
Visualization observer readout
Local Sidereal Time
16:48:09
Azimuth
Unknown
Elevation
Unknown
Doppler factor
Unknown
Orbital elements
Apogee altitude
864.765 km
Perigee altitude
829.347 km
Semi-major axis
7,225.193 km
Eccentricity
0.00245
Inclination
98.591°
RAAN
63.5436°
Arg. of periapsis
89.7131°
True anomaly
270.40425°
Mean anomaly
270.6851°
Eccentric anomaly
270.54467°
Mean motion
3.53402 °/min
Orbital period
101.87 mins
BSTAR
0.00066681
Loading maneuver chart data...
Computing Atmospheric mass density...
Loading historical data...
Loading historical data...
Loading historical data...
Loading historical data...
Loading historical data...
Loading historical data...
Loading historical data...

Documentation

Showing up to 5 results
|